Wetterdaten: Woche 02.01.23 - 08.01.23 (KW1)
Datum Zeit Temp. Aussen Temp. o. S. Temp +5cm Feuchte Auss Luftdruck Regen Sonnenschein Regendauer Solar Windben Empfang
02.01.2023 00:00 11,6 C 11,2 C 6,8 C 93 % 1011,9 hPa 0,0 l/m 0,00 h 0,28 h 0 W/m 15,5 km/h (3 Bft) 97,98 %
02.01.2023 01:00 12,3 C 12,1 C 7,8 C 91 % 1011,8 hPa 0,2 l/m 0,00 h 0,13 h 0 W/m 12,9 km/h (3 Bft) 95,67 %
02.01.2023 02:00 13,4 C 12,2 C 7,8 C 89 % 1011,5 hPa 0,4 l/m 0,00 h 0,80 h 0 W/m 15,0 km/h (3 Bft) 96,06 %
02.01.2023 03:00 13,0 C 12,1 C 7,6 C 90 % 1011,6 hPa 0,4 l/m 0,00 h 0,93 h 0 W/m 18,1 km/h (3 Bft) 98,49 %
02.01.2023 04:00 13,0 C 11,8 C 7,8 C 90 % 1011,7 hPa 1,0 l/m 0,00 h 1,00 h 0 W/m 19,3 km/h (3 Bft) 95,83 %
02.01.2023 05:00 12,6 C 11,8 C 7,4 C 92 % 1011,9 hPa 0,2 l/m 0,00 h 0,57 h 0 W/m 18,6 km/h (3 Bft) 98,36 %
02.01.2023 06:00 12,8 C 11,9 C 7,2 C 90 % 1012,3 hPa 0,2 l/m 0,00 h 0,73 h 0 W/m 22,6 km/h (4 Bft) 96,92 %
02.01.2023 07:00 12,4 C 11,2 C 7,2 C 91 % 1012,7 hPa 0,4 l/m 0,00 h 1,00 h 0 W/m 24,8 km/h (4 Bft) 95,52 %
02.01.2023 08:00 12,1 C 11,0 C 7,2 C 93 % 1013,3 hPa 0,4 l/m 0,00 h 1,00 h 0 W/m 25,7 km/h (4 Bft) 98,72 %
02.01.2023 09:00 11,4 C 10,1 C 6,9 C 94 % 1014,7 hPa 1,8 l/m 0,00 h 0,87 h 15 W/m 20,7 km/h (4 Bft) 96,87 %
02.01.2023 10:00 10,2 C 9,4 C 6,2 C 95 % 1016,1 hPa 0,0 l/m 0,00 h 0,00 h 39 W/m 7,2 km/h (2 Bft) 96,73 %
02.01.2023 11:00 10,2 C 9,7 C 6,4 C 96 % 1016,9 hPa 0,0 l/m 0,00 h 0,00 h 58 W/m 9,2 km/h (2 Bft) 98,15 %
02.01.2023 12:00 10,2 C 9,8 C 6,2 C 95 % 1017,1 hPa 0,0 l/m 0,00 h 0,00 h 43 W/m 7,2 km/h (2 Bft) 97,35 %
02.01.2023 13:00 10,4 C 10,0 C 6,3 C 93 % 1017,7 hPa 0,0 l/m 0,00 h 0,00 h 60 W/m 10,2 km/h (2 Bft) 97,08 %
02.01.2023 14:00 10,3 C 9,7 C 6,1 C 92 % 1018,1 hPa 0,2 l/m 0,00 h 0,37 h 28 W/m 4,9 km/h (1 Bft) 95,02 %
02.01.2023 15:00 10,0 C 9,4 C 6,0 C 94 % 1018,7 hPa 0,0 l/m 0,00 h 0,17 h 29 W/m 8,4 km/h (2 Bft) 99,36 %
02.01.2023 16:00 9,7 C 8,9 C 5,6 C 94 % 1019,4 hPa 0,0 l/m 0,00 h 0,00 h 11 W/m 8,6 km/h (2 Bft) 94,14 %
02.01.2023 17:00 9,1 C 8,2 C 5,1 C 94 % 1020,5 hPa 1,0 l/m 0,00 h 0,40 h 0 W/m 13,1 km/h (3 Bft) 97,16 %
02.01.2023 18:00 8,0 C 7,1 C 4,1 C 94 % 1021,4 hPa 0,0 l/m 0,00 h 0,00 h 0 W/m 9,3 km/h (2 Bft) 98,01 %
02.01.2023 19:00 7,8 C 6,9 C 4,1 C 95 % 1022,5 hPa 0,0 l/m 0,00 h 0,00 h 0 W/m 7,3 km/h (2 Bft) 96,94 %
02.01.2023 20:00 8,3 C 7,7 C 4,5 C 95 % 1023,3 hPa 0,0 l/m 0,00 h 0,00 h 0 W/m 8,6 km/h (2 Bft) 97,66 %
02.01.2023 21:00 8,1 C 7,2 C 4,2 C 95 % 1024,2 hPa 0,0 l/m 0,00 h 0,00 h 0 W/m 5,8 km/h (2 Bft) 95,85 %
02.01.2023 22:00 7,5 C 6,5 C 3,7 C 95 % 1025,0 hPa 0,0 l/m 0,00 h 0,00 h 0 W/m 4,3 km/h (1 Bft) 98,07 %
02.01.2023 23:00 7,0 C 6,1 C 3,4 C 96 % 1025,5 hPa 0,0 l/m 0,00 h 0,00 h 0 W/m 1,7 km/h (1 Bft) 95,59 %
03.01.2023 00:00 7,0 C 6,2 C 3,8 C 96 % 1026,0 hPa 0,0 l/m 0,00 h 0,00 h 0 W/m 1,8 km/h (1 Bft) 98,29 %
03.01.2023 01:00 6,7 C 5,8 C 3,2 C 96 % 1026,2 hPa 0,0 l/m 0,00 h 0,00 h 0 W/m 4,7 km/h (1 Bft) 98,80 %
03.01.2023 02:00 6,0 C 5,0 C 2,6 C 96 % 1026,7 hPa 0,0 l/m 0,00 h 0,00 h 0 W/m 3,0 km/h (1 Bft) 96,24 %
03.01.2023 03:00 5,4 C 4,2 C 2,0 C 96 % 1027,2 hPa 0,0 l/m 0,00 h 0,00 h 0 W/m 2,9 km/h (1 Bft) 98,04 %
03.01.2023 04:00 4,9 C 3,8 C 1,8 C 96 % 1027,4 hPa 0,0 l/m 0,00 h 0,00 h 0 W/m 3,5 km/h (1 Bft) 95,61 %
03.01.2023 05:00 4,3 C 3,3 C 1,4 C 96 % 1027,4 hPa 0,0 l/m 0,00 h 0,00 h 0 W/m 2,1 km/h (1 Bft) 97,85 %
03.01.2023 06:00 4,2 C 3,3 C 1,7 C 97 % 1027,4 hPa 0,2 l/m 0,00 h 0,00 h 0 W/m 1,2 km/h (1 Bft) 95,91 %
03.01.2023 07:00 4,4 C 3,9 C 1,9 C 97 % 1027,4 hPa 0,0 l/m 0,00 h 0,00 h 0 W/m 3,5 km/h (1 Bft) 99,07 %
03.01.2023 08:00 4,8 C 4,4 C 2,2 C 97 % 1027,3 hPa 0,0 l/m 0,00 h 0,00 h 7 W/m 7,6 km/h (2 Bft) 96,66 %
03.01.2023 09:00 5,1 C 4,9 C 2,7 C 97 % 1027,5 hPa 0,0 l/m 0,00 h 0,00 h 28 W/m 8,5 km/h (2 Bft) 96,73 %
03.01.2023 10:00 6,1 C 6,7 C 4,0 C 98 % 1027,9 hPa 0,0 l/m 0,27 h 0,10 h 88 W/m 8,0 km/h (2 Bft) 98,54 %
03.01.2023 11:00 7,4 C 7,9 C 4,7 C 97 % 1028,0 hPa 0,0 l/m 0,17 h 0,10 h 93 W/m 10,8 km/h (2 Bft) 96,73 %
03.01.2023 12:00 8,6 C 8,7 C 5,8 C 93 % 1027,7 hPa 0,0 l/m 0,00 h 0,00 h 84 W/m 16,5 km/h (3 Bft) 95,04 %
03.01.2023 13:00 9,4 C 9,6 C 6,4 C 88 % 1027,2 hPa 0,0 l/m 0,00 h 0,00 h 96 W/m 20,7 km/h (4 Bft) 99,12 %
03.01.2023 14:00 9,3 C 9,1 C 6,1 C 86 % 1027,0 hPa 0,0 l/m 0,30 h 0,00 h 86 W/m 19,9 km/h (4 Bft) 93,52 %
03.01.2023 15:00 9,2 C 8,8 C 5,6 C 84 % 1027,0 hPa 0,0 l/m 0,03 h 0,00 h 48 W/m 20,9 km/h (4 Bft) 99,16 %
03.01.2023 16:00 8,7 C 7,5 C 4,5 C 84 % 1027,0 hPa 0,0 l/m 0,00 h 0,00 h 12 W/m 8,9 km/h (2 Bft) 95,49 %
03.01.2023 17:00 7,7 C 6,7 C 3,8 C 87 % 1026,9 hPa 0,0 l/m 0,00 h 0,00 h 0 W/m 8,6 km/h (2 Bft) 96,74 %
03.01.2023 18:00 7,2 C 6,4 C 3,5 C 88 % 1026,8 hPa 0,0 l/m 0,00 h 0,00 h 0 W/m 10,1 km/h (2 Bft) 97,42 %
03.01.2023 19:00 7,4 C 6,7 C 3,9 C 87 % 1026,4 hPa 0,0 l/m 0,00 h 0,00 h 0 W/m 14,9 km/h (3 Bft) 97,37 %
03.01.2023 20:00 7,4 C 6,5 C 3,7 C 86 % 1025,7 hPa 0,0 l/m 0,00 h 0,00 h 0 W/m 14,6 km/h (3 Bft) 96,41 %
03.01.2023 21:00 6,7 C 5,7 C 2,8 C 87 % 1025,2 hPa 0,0 l/m 0,00 h 0,00 h 0 W/m 11,7 km/h (2 Bft) 97,37 %
03.01.2023 22:00 6,3 C 5,6 C 2,8 C 89 % 1024,6 hPa 0,0 l/m 0,00 h 0,00 h 0 W/m 13,9 km/h (3 Bft) 98,29 %
03.01.2023 23:00 6,5 C 5,9 C 2,9 C 89 % 1023,9 hPa 0,0 l/m 0,00 h 0,00 h 0 W/m 12,1 km/h (2 Bft) 97,05 %
04.01.2023 00:00 7,4 C 7,0 C 3,8 C 88 % 1023,0 hPa 0,0 l/m 0,00 h 0,00 h 0 W/m 18,0 km/h (3 Bft) 96,39 %
04.01.2023 01:00 8,8 C 8,1 C 4,4 C 86 % 1021,9 hPa 0,2 l/m 0,00 h 0,50 h 0 W/m 22,4 km/h (4 Bft) 98,48 %
04.01.2023 02:00 8,8 C 7,7 C 3,9 C 90 % 1021,0 hPa 0,6 l/m 0,00 h 0,93 h 0 W/m 21,9 km/h (4 Bft) 96,06 %
04.01.2023 03:00 8,6 C 7,4 C 4,3 C 94 % 1020,4 hPa 0,6 l/m 0,00 h 0,23 h 0 W/m 24,7 km/h (4 Bft) 97,72 %
04.01.2023 04:00 9,5 C 8,5 C 4,9 C 92 % 1019,6 hPa 0,2 l/m 0,00 h 0,37 h 0 W/m 34,8 km/h (5 Bft) 98,06 %
04.01.2023 05:00 9,8 C 9,1 C 5,1 C 92 % 1018,9 hPa 0,0 l/m 0,00 h 0,20 h 0 W/m 35,3 km/h (5 Bft) 95,85 %
04.01.2023 06:00 10,3 C 9,6 C 5,7 C 91 % 1018,4 hPa 0,0 l/m 0,00 h 0,00 h 0 W/m 36,0 km/h (5 Bft) 98,42 %
04.01.2023 07:00 10,7 C 10,0 C 6,7 C 91 % 1017,7 hPa 0,0 l/m 0,00 h 0,10 h 0 W/m 35,5 km/h (5 Bft) 96,54 %
04.01.2023 08:00 11,0 C 10,4 C 7,0 C 90 % 1017,4 hPa 0,0 l/m 0,00 h 0,00 h 0 W/m 38,7 km/h (5 Bft) 98,05 %
04.01.2023 09:00 11,2 C 10,6 C 7,3 C 91 % 1017,1 hPa 0,0 l/m 0,00 h 0,00 h 11 W/m 39,7 km/h (6 Bft) 95,31 %
04.01.2023 10:00 11,4 C 10,7 C 7,5 C 91 % 1016,9 hPa 0,2 l/m 0,00 h 0,17 h 19 W/m 41,3 km/h (6 Bft) 95,58 %
04.01.2023 11:00 11,5 C 10,3 C 7,0 C 93 % 1016,7 hPa 0,2 l/m 0,00 h 0,57 h 36 W/m 36,8 km/h (5 Bft) 85,48 %
04.01.2023 12:00 11,7 C 10,9 C 7,2 C 94 % 1016,2 hPa 0,0 l/m 0,00 h 0,83 h 44 W/m 38,1 km/h (5 Bft) 97,94 %
04.01.2023 13:00 11,6 C 10,6 C 7,6 C 95 % 1015,6 hPa 0,4 l/m 0,00 h 1,00 h 46 W/m 37,7 km/h (5 Bft) 97,15 %
04.01.2023 14:00 11,9 C 11,2 C 7,8 C 95 % 1015,3 hPa 0,0 l/m 0,00 h 0,57 h 36 W/m 31,1 km/h (5 Bft) 97,43 %
04.01.2023 15:00 12,1 C 11,5 C 8,3 C 95 % 1015,0 hPa 0,0 l/m 0,00 h 0,47 h 22 W/m 30,3 km/h (5 Bft) 96,73 %
04.01.2023 16:00 12,3 C 11,7 C 8,5 C 95 % 1015,0 hPa 0,0 l/m 0,00 h 0,23 h 11 W/m 24,0 km/h (4 Bft) 97,85 %
04.01.2023 17:00 12,0 C 10,9 C 8,0 C 96 % 1014,9 hPa 1,6 l/m 0,00 h 0,53 h 0 W/m 18,0 km/h (3 Bft) 94,78 %
04.01.2023 18:00 12,0 C 11,3 C 7,7 C 94 % 1014,8 hPa 0,0 l/m 0,00 h 0,00 h 0 W/m 26,7 km/h (4 Bft) 98,08 %
04.01.2023 19:00 12,1 C 11,6 C 7,4 C 90 % 1015,3 hPa 0,0 l/m 0,00 h 0,00 h 0 W/m 25,1 km/h (4 Bft) 98,04 %
04.01.2023 20:00 12,2 C 11,5 C 7,7 C 89 % 1015,3 hPa 0,2 l/m 0,00 h 0,00 h 0 W/m 28,4 km/h (4 Bft) 95,87 %
04.01.2023 21:00 12,1 C 11,1 C 7,8 C 88 % 1015,7 hPa 0,0 l/m 0,00 h 0,00 h 0 W/m 24,3 km/h (4 Bft) 98,58 %
04.01.2023 22:00 11,9 C 11,1 C 7,9 C 86 % 1016,1 hPa 0,0 l/m 0,00 h 0,00 h 0 W/m 22,6 km/h (4 Bft) 96,03 %
04.01.2023 23:00 11,8 C 11,1 C 7,8 C 86 % 1016,3 hPa 0,0 l/m 0,00 h 0,00 h 0 W/m 22,8 km/h (4 Bft) 96,43 %
05.01.2023 00:00 11,7 C 11,1 C 7,8 C 86 % 1016,7 hPa 0,0 l/m 0,00 h 0,00 h 0 W/m 19,1 km/h (3 Bft) 99,12 %
05.01.2023 01:00 11,6 C 10,7 C 7,6 C 85 % 1017,0 hPa 0,0 l/m 0,00 h 0,00 h 0 W/m 22,0 km/h (4 Bft) 96,41 %
05.01.2023 02:00 11,3 C 10,6 C 7,2 C 86 % 1017,3 hPa 0,0 l/m 0,00 h 0,00 h 0 W/m 20,0 km/h (4 Bft) 97,49 %
05.01.2023 03:00 11,1 C 10,5 C 7,2 C 86 % 1017,7 hPa 0,0 l/m 0,00 h 0,00 h 0 W/m 21,4 km/h (4 Bft) 98,14 %
05.01.2023 04:00 10,8 C 10,0 C 6,7 C 88 % 1017,8 hPa 0,0 l/m 0,00 h 0,00 h 0 W/m 18,8 km/h (3 Bft) 97,15 %
05.01.2023 05:00 10,4 C 9,5 C 5,9 C 91 % 1018,0 hPa 0,2 l/m 0,00 h 0,40 h 0 W/m 18,5 km/h (3 Bft) 96,63 %
05.01.2023 06:00 10,2 C 9,4 C 6,2 C 92 % 1018,3 hPa 0,0 l/m 0,00 h 0,13 h 0 W/m 17,3 km/h (3 Bft) 97,01 %
05.01.2023 07:00 10,0 C 9,4 C 6,1 C 93 % 1018,9 hPa 0,0 l/m 0,00 h 0,27 h 0 W/m 15,4 km/h (3 Bft) 97,82 %
05.01.2023 08:00 10,1 C 9,4 C 6,1 C 93 % 1019,4 hPa 0,2 l/m 0,00 h 0,67 h 4 W/m 15,7 km/h (3 Bft) 95,50 %
05.01.2023 09:00 10,0 C 9,4 C 5,7 C 94 % 1020,0 hPa 0,2 l/m 0,00 h 0,23 h 24 W/m 15,2 km/h (3 Bft) 98,17 %
05.01.2023 10:00 10,4 C 10,1 C 6,3 C 92 % 1020,6 hPa 0,0 l/m 0,00 h 0,00 h 62 W/m 14,7 km/h (3 Bft) 96,52 %
05.01.2023 11:00 10,7 C 10,5 C 7,3 C 91 % 1021,2 hPa 0,0 l/m 0,03 h 0,00 h 90 W/m 14,2 km/h (3 Bft) 96,08 %
05.01.2023 12:00 11,3 C 11,5 C 7,8 C 89 % 1021,4 hPa 0,0 l/m 0,13 h 0,00 h 131 W/m 15,2 km/h (3 Bft) 96,83 %
05.01.2023 13:00 11,8 C 12,8 C 8,1 C 86 % 1021,3 hPa 0,0 l/m 0,57 h 0,00 h 177 W/m 14,3 km/h (3 Bft) 96,33 %
05.01.2023 14:00 11,7 C 11,9 C 7,8 C 84 % 1021,4 hPa 0,0 l/m 0,37 h 0,00 h 121 W/m 13,6 km/h (3 Bft) 95,80 %
05.01.2023 15:00 11,6 C 11,2 C 7,6 C 83 % 1021,5 hPa 0,0 l/m 0,07 h 0,00 h 53 W/m 10,6 km/h (2 Bft) 94,80 %
05.01.2023 16:00 11,2 C 10,4 C 7,1 C 87 % 1021,6 hPa 0,0 l/m 0,00 h 0,00 h 14 W/m 8,4 km/h (2 Bft) 95,88 %
05.01.2023 17:00 10,8 C 9,9 C 6,6 C 90 % 1021,5 hPa 0,0 l/m 0,00 h 0,03 h 0 W/m 12,6 km/h (3 Bft) 96,04 %
05.01.2023 18:00 10,3 C 9,2 C 6,1 C 94 % 1021,2 hPa 0,2 l/m 0,00 h 0,10 h 0 W/m 11,4 km/h (2 Bft) 98,51 %
05.01.2023 19:00 10,0 C 8,9 C 6,1 C 96 % 1020,8 hPa 0,0 l/m 0,00 h 0,00 h 0 W/m 10,1 km/h (2 Bft) 96,37 %
05.01.2023 20:00 10,2 C 9,4 C 6,4 C 97 % 1020,5 hPa 0,0 l/m 0,00 h 0,00 h 0 W/m 11,6 km/h (2 Bft) 97,79 %
05.01.2023 21:00 10,4 C 9,6 C 6,7 C 98 % 1020,4 hPa 0,0 l/m 0,00 h 0,00 h 0 W/m 8,8 km/h (2 Bft) 99,29 %
05.01.2023 22:00 10,8 C 10,2 C 7,2 C 98 % 1020,3 hPa 0,0 l/m 0,00 h 0,00 h 0 W/m 10,4 km/h (2 Bft) 95,00 %
05.01.2023 23:00 10,8 C 10,6 C 7,4 C 98 % 1020,0 hPa 0,0 l/m 0,00 h 0,00 h 0 W/m 12,5 km/h (3 Bft) 99,42 %
06.01.2023 00:00 10,8 C 10,4 C 7,5 C 96 % 1019,8 hPa 0,0 l/m 0,00 h 0,00 h 0 W/m 17,4 km/h (3 Bft) 97,36 %
06.01.2023 01:00 10,8 C 10,0 C 7,2 C 94 % 1019,5 hPa 0,0 l/m 0,00 h 0,00 h 0 W/m 15,7 km/h (3 Bft) 97,07 %
06.01.2023 02:00 10,7 C 10,0 C 7,2 C 91 % 1019,2 hPa 0,0 l/m 0,00 h 0,00 h 0 W/m 16,6 km/h (3 Bft) 97,79 %
06.01.2023 03:00 10,7 C 10,0 C 7,2 C 88 % 1018,9 hPa 0,0 l/m 0,00 h 0,00 h 0 W/m 16,7 km/h (3 Bft) 97,51 %
06.01.2023 04:00 10,8 C 10,0 C 7,2 C 86 % 1018,4 hPa 0,0 l/m 0,00 h 0,00 h 0 W/m 20,5 km/h (4 Bft) 96,50 %
06.01.2023 05:00 10,8 C 10,0 C 7,0 C 86 % 1017,9 hPa 0,0 l/m 0,00 h 0,00 h 0 W/m 21,6 km/h (4 Bft) 97,72 %
06.01.2023 06:00 10,8 C 10,0 C 6,8 C 87 % 1017,6 hPa 0,0 l/m 0,00 h 0,00 h 0 W/m 25,7 km/h (4 Bft) 97,64 %
06.01.2023 07:00 10,7 C 10,0 C 6,7 C 87 % 1017,4 hPa 0,0 l/m 0,00 h 0,00 h 0 W/m 25,2 km/h (4 Bft) 97,36 %
06.01.2023 08:00 10,8 C 10,0 C 6,7 C 87 % 1017,4 hPa 0,0 l/m 0,00 h 0,00 h 0 W/m 26,1 km/h (4 Bft) 96,94 %
06.01.2023 09:00 10,8 C 10,0 C 6,7 C 88 % 1017,7 hPa 0,0 l/m 0,00 h 0,10 h 7 W/m 26,8 km/h (4 Bft) 97,68 %
06.01.2023 10:00 10,5 C 9,9 C 6,7 C 92 % 1018,4 hPa 0,0 l/m 0,00 h 0,60 h 33 W/m 23,8 km/h (4 Bft) 96,80 %
06.01.2023 11:00 10,7 C 10,6 C 7,2 C 95 % 1018,7 hPa 0,0 l/m 0,00 h 0,13 h 89 W/m 19,8 km/h (4 Bft) 97,55 %
06.01.2023 12:00 11,6 C 12,5 C 8,1 C 92 % 1018,6 hPa 0,0 l/m 0,38 h 0,00 h 159 W/m 18,8 km/h (3 Bft) 97,60 %
06.01.2023 13:00 11,8 C 11,9 C 8,1 C 89 % 1018,4 hPa 0,0 l/m 0,13 h 0,00 h 115 W/m 20,0 km/h (4 Bft) 97,08 %
06.01.2023 14:00 11,4 C 10,9 C 7,6 C 92 % 1018,4 hPa 0,0 l/m 0,00 h 0,17 h 64 W/m 17,2 km/h (3 Bft) 97,51 %
06.01.2023 15:00 11,2 C 10,6 C 7,2 C 94 % 1018,4 hPa 0,0 l/m 0,00 h 0,03 h 32 W/m 16,5 km/h (3 Bft) 97,36 %
06.01.2023 16:00 10,9 C 10,0 C 6,7 C 95 % 1018,4 hPa 0,2 l/m 0,00 h 0,20 h 10 W/m 14,9 km/h (3 Bft) 97,34 %
06.01.2023 17:00 10,7 C 10,0 C 6,7 C 96 % 1018,4 hPa 0,2 l/m 0,00 h 0,10 h 0 W/m 18,6 km/h (3 Bft) 98,01 %
06.01.2023 18:00 10,7 C 10,0 C 6,7 C 96 % 1018,5 hPa 0,0 l/m 0,00 h 0,00 h 0 W/m 18,5 km/h (3 Bft) 95,19 %
06.01.2023 19:00 10,5 C 9,6 C 6,7 C 95 % 1018,4 hPa 0,0 l/m 0,00 h 0,00 h 0 W/m 13,5 km/h (3 Bft) 97,22 %
06.01.2023 20:00 10,5 C 9,8 C 6,9 C 95 % 1018,3 hPa 0,0 l/m 0,00 h 0,07 h 0 W/m 13,5 km/h (3 Bft) 99,36 %
06.01.2023 21:00 10,5 C 9,7 C 6,9 C 96 % 1018,1 hPa 0,0 l/m 0,00 h 0,00 h 0 W/m 12,0 km/h (2 Bft) 95,59 %
06.01.2023 22:00 10,9 C 10,5 C 7,6 C 94 % 1018,1 hPa 0,0 l/m 0,00 h 0,00 h 0 W/m 17,0 km/h (3 Bft) 98,51 %
06.01.2023 23:00 10,9 C 10,0 C 7,1 C 92 % 1018,0 hPa 0,0 l/m 0,00 h 0,00 h 0 W/m 12,9 km/h (3 Bft) 97,44 %
07.01.2023 00:00 10,2 C 9,3 C 6,7 C 93 % 1018,1 hPa 0,0 l/m 0,00 h 0,00 h 0 W/m 6,8 km/h (2 Bft) 97,57 %
07.01.2023 01:00 9,9 C 9,0 C 6,3 C 93 % 1017,7 hPa 0,2 l/m 0,00 h 0,00 h 0 W/m 7,2 km/h (2 Bft) 97,65 %
07.01.2023 02:00 9,8 C 9,1 C 6,3 C 94 % 1017,2 hPa 0,0 l/m 0,00 h 0,00 h 0 W/m 6,6 km/h (2 Bft) 98,07 %
07.01.2023 03:00 10,1 C 9,6 C 6,7 C 94 % 1016,9 hPa 0,0 l/m 0,00 h 0,00 h 0 W/m 10,8 km/h (2 Bft) 97,09 %
07.01.2023 04:00 10,2 C 9,3 C 6,5 C 92 % 1016,5 hPa 0,0 l/m 0,00 h 0,00 h 0 W/m 9,0 km/h (2 Bft) 98,29 %
07.01.2023 05:00 9,4 C 8,1 C 5,5 C 92 % 1015,9 hPa 0,0 l/m 0,00 h 0,00 h 0 W/m 7,0 km/h (2 Bft) 97,01 %
07.01.2023 06:00 8,5 C 7,2 C 4,8 C 93 % 1015,3 hPa 0,0 l/m 0,00 h 0,00 h 0 W/m 3,9 km/h (1 Bft) 97,05 %
07.01.2023 07:00 8,3 C 7,8 C 5,3 C 94 % 1014,9 hPa 0,0 l/m 0,00 h 0,00 h 0 W/m 4,7 km/h (1 Bft) 94,80 %
07.01.2023 08:00 9,0 C 8,7 C 6,0 C 93 % 1014,5 hPa 0,0 l/m 0,00 h 0,00 h 7 W/m 10,2 km/h (2 Bft) 98,44 %
07.01.2023 09:00 9,7 C 9,2 C 6,1 C 89 % 1014,1 hPa 0,0 l/m 0,00 h 0,00 h 10 W/m 12,9 km/h (3 Bft) 96,50 %
07.01.2023 10:00 10,2 C 9,9 C 6,7 C 88 % 1013,5 hPa 0,0 l/m 0,50 h 0,00 h 118 W/m 17,0 km/h (3 Bft) 95,42 %
07.01.2023 11:00 11,1 C 10,8 C 7,2 C 84 % 1012,9 hPa 0,0 l/m 0,43 h 0,00 h 143 W/m 20,4 km/h (4 Bft) 96,80 %
07.01.2023 12:00 11,2 C 11,9 C 7,5 C 83 % 1011,5 hPa 0,0 l/m 0,40 h 0,00 h 166 W/m 22,0 km/h (4 Bft) 97,62 %
07.01.2023 13:00 12,3 C 15,6 C 7,8 C 75 % 1010,4 hPa 0,0 l/m 0,97 h 0,00 h 268 W/m 22,6 km/h (4 Bft) 95,86 %
07.01.2023 14:00 12,4 C 12,8 C 7,8 C 73 % 1009,5 hPa 0,0 l/m 1,00 h 0,00 h 178 W/m 18,8 km/h (3 Bft) 98,24 %
07.01.2023 15:00 12,0 C 11,2 C 7,3 C 74 % 1008,8 hPa 0,0 l/m 0,13 h 0,00 h 63 W/m 20,1 km/h (4 Bft) 98,75 %
07.01.2023 16:00 10,7 C 9,6 C 6,1 C 79 % 1008,2 hPa 0,0 l/m 0,00 h 0,00 h 13 W/m 17,2 km/h (3 Bft) 98,06 %
07.01.2023 17:00 9,7 C 8,7 C 5,4 C 82 % 1007,7 hPa 0,0 l/m 0,00 h 0,00 h 0 W/m 17,2 km/h (3 Bft) 94,36 %
07.01.2023 18:00 9,4 C 8,7 C 5,3 C 83 % 1007,4 hPa 0,0 l/m 0,00 h 0,00 h 0 W/m 18,2 km/h (3 Bft) 96,59 %
07.01.2023 19:00 9,5 C 8,8 C 4,9 C 85 % 1006,9 hPa 0,0 l/m 0,00 h 0,10 h 0 W/m 17,0 km/h (3 Bft) 98,48 %
07.01.2023 20:00 9,7 C 9,2 C 5,6 C 84 % 1006,5 hPa 0,0 l/m 0,00 h 0,03 h 0 W/m 16,4 km/h (3 Bft) 96,09 %
07.01.2023 21:00 10,1 C 9,2 C 4,8 C 85 % 1006,5 hPa 0,2 l/m 0,00 h 0,53 h 0 W/m 17,2 km/h (3 Bft) 97,31 %
07.01.2023 22:00 10,2 C 9,4 C 5,5 C 86 % 1006,3 hPa 0,0 l/m 0,00 h 0,00 h 0 W/m 17,3 km/h (3 Bft) 99,36 %
07.01.2023 23:00 10,4 C 9,5 C 6,0 C 86 % 1006,1 hPa 0,0 l/m 0,00 h 0,00 h 0 W/m 17,1 km/h (3 Bft) 94,71 %
08.01.2023 00:00 10,3 C 9,4 C 6,1 C 88 % 1005,7 hPa 0,0 l/m 0,00 h 0,03 h 0 W/m 18,1 km/h (3 Bft) 97,75 %
08.01.2023 01:00 10,2 C 9,4 C 6,1 C 88 % 1005,4 hPa 0,0 l/m 0,00 h 0,00 h 0 W/m 11,8 km/h (2 Bft) 97,22 %
08.01.2023 02:00 10,1 C 9,4 C 6,0 C 89 % 1005,0 hPa 0,0 l/m 0,00 h 0,00 h 0 W/m 11,3 km/h (2 Bft) 96,92 %
08.01.2023 03:00 10,2 C 9,4 C 6,1 C 88 % 1004,5 hPa 0,0 l/m 0,00 h 0,07 h 0 W/m 14,6 km/h (3 Bft) 98,08 %
08.01.2023 04:00 10,2 C 9,3 C 5,9 C 87 % 1003,9 hPa 0,0 l/m 0,00 h 0,00 h 0 W/m 11,6 km/h (2 Bft) 97,65 %
08.01.2023 05:00 9,8 C 9,0 C 5,7 C 89 % 1003,6 hPa 0,0 l/m 0,00 h 0,00 h 0 W/m 10,1 km/h (2 Bft) 96,41 %
08.01.2023 06:00 10,1 C 9,3 C 5,8 C 85 % 1003,2 hPa 0,0 l/m 0,00 h 0,00 h 0 W/m 16,4 km/h (3 Bft) 98,72 %
08.01.2023 07:00 9,1 C 8,0 C 4,3 C 88 % 1003,5 hPa 0,6 l/m 0,00 h 0,30 h 0 W/m 13,2 km/h (3 Bft) 95,67 %
08.01.2023 08:00 7,9 C 7,2 C 3,3 C 92 % 1003,8 hPa 0,0 l/m 0,00 h 0,00 h 4 W/m 12,5 km/h (3 Bft) 96,98 %
08.01.2023 09:00 7,4 C 6,6 C 2,8 C 91 % 1003,6 hPa 0,0 l/m 0,00 h 0,00 h 16 W/m 6,2 km/h (2 Bft) 97,14 %
08.01.2023 10:00 7,7 C 8,0 C 3,5 C 92 % 1003,3 hPa 0,0 l/m 0,27 h 0,00 h 105 W/m 8,9 km/h (2 Bft) 98,15 %
08.01.2023 11:00 9,4 C 10,0 C 5,2 C 89 % 1002,6 hPa 0,0 l/m 0,17 h 0,00 h 127 W/m 13,2 km/h (3 Bft) 96,52 %
08.01.2023 12:00 9,8 C 8,6 C 5,0 C 86 % 1001,7 hPa 3,0 l/m 0,00 h 0,73 h 42 W/m 19,8 km/h (3 Bft) 97,57 %
08.01.2023 13:00 9,2 C 11,7 C 4,1 C 90 % 1001,2 hPa 0,2 l/m 0,87 h 0,07 h 247 W/m 22,7 km/h (4 Bft) 99,19 %
08.01.2023 14:00 10,3 C 11,2 C 4,4 C 84 % 1000,6 hPa 0,0 l/m 0,80 h 0,00 h 173 W/m 21,6 km/h (4 Bft) 96,20 %
08.01.2023 15:00 10,3 C 9,6 C 4,2 C 81 % 1000,0 hPa 0,0 l/m 0,30 h 0,00 h 60 W/m 22,7 km/h (4 Bft) 96,78 %
08.01.2023 16:00 9,4 C 8,3 C 4,4 C 82 % 999,5 hPa 0,0 l/m 0,00 h 0,00 h 12 W/m 13,5 km/h (3 Bft) 97,87 %
08.01.2023 17:00 8,8 C 7,8 C 4,4 C 83 % 999,3 hPa 0,0 l/m 0,00 h 0,00 h 0 W/m 13,3 km/h (3 Bft) 94,74 %
08.01.2023 18:00 8,1 C 7,0 C 3,8 C 84 % 998,7 hPa 0,0 l/m 0,00 h 0,00 h 0 W/m 10,7 km/h (2 Bft) 99,14 %
08.01.2023 19:00 7,6 C 6,7 C 3,4 C 86 % 998,1 hPa 0,0 l/m 0,00 h 0,00 h 0 W/m 14,1 km/h (3 Bft) 96,23 %
08.01.2023 20:00 7,3 C 6,6 C 3,3 C 88 % 997,3 hPa 0,0 l/m 0,00 h 0,00 h 0 W/m 15,1 km/h (3 Bft) 97,93 %
08.01.2023 21:00 7,6 C 7,0 C 3,9 C 89 % 996,5 hPa 0,0 l/m 0,00 h 0,00 h 0 W/m 18,3 km/h (3 Bft) 95,00 %
08.01.2023 22:00 8,0 C 7,3 C 4,1 C 89 % 995,7 hPa 0,0 l/m 0,00 h 0,10 h 0 W/m 16,0 km/h (3 Bft) 98,72 %
08.01.2023 23:00 8,2 C 7,2 C 3,3 C 91 % 994,8 hPa 1,2 l/m 0,00 h 0,97 h 0 W/m 15,7 km/h (3 Bft) 96,20 %
Min-Datum _ 03.01.23 03.01.23 03.01.23 07.01.23 08.01.23 - - - - 02.01.23 02.01.23
_ Min-Zeit 05:48 04:46 05:30 13:44 23:48 - - - - 12:36 21:56
Minimum _ 4,1 C 3,3 C 1,1 C 72 % 994,5 hPa - - - - 0,0 km/h (0 Bft) 35,48 %
Max-Datum _ 02.01.23 07.01.23 04.01.23 03.01.23 03.01.23 08.01.23 06.01.23 02.01.23 05.01.23 04.01.23 02.01.23
_ Max-Zeit 02:08 13:24 16:32 09:12 11:20 12:40 12:07 00:14 13:40 12:58 00:18
Maximum _ 13,7 C 16,7 C 8,9 C 98 % 1028,1 hPa 3,0 l/m 0,05 h 0,08 h 354 W/m 77,2 km/h
S-SW (9 Bft)
100,00 %
Durchschnitt _ 9,9 C 9,2 C 5,9 C 90 % 1016,0 hPa #17,2 l/m #8:17 h #21:21 h 66 W/m 16,3 km/h (3 Bft) 97,04 %
© 2023 W. Hausmann